DW0000 Weather Reports


Display with metric or nautical units.
time (UTC)temp
F
wind
direction
speed
MPH
gust
MPH
rain 1hr
in
rain 24hr
in
rain mn
in
humidity
%
barometer
mb
20260503021507 66 212 3.0 6.0 0.00 0.00 0.00 59 1032.0
20260503021005 67 187 2.0 6.0 0.00 0.00 0.00 58 1032.1
20260503020505 67 323 1.0 2.0 0.00 0.00 0.00 59 1032.2
20260503015507 66 226 1.0 3.0 0.00 0.00 0.00 58 1032.2
20260503015006 66 34 3.0 5.0 0.00 0.00 0.00 60 1032.1
20260503014006 65 44 3.0 7.0 0.00 0.00 0.00 58 1032.3
20260503013507 66 60 3.0 7.0 0.00 0.00 0.00 59 1032.4
20260503013006 66 63 4.0 6.0 0.00 0.00 0.00 58 1032.4
20260503012506 65 45 4.0 10.0 0.00 0.00 0.00 60 1032.4
20260503012007 65 39 5.0 10.0 0.00 0.00 0.00 60 1032.5
20260503011506 65 86 3.0 7.0 0.00 0.00 0.00 60 1032.8
20260503010506 65 82 2.0 6.0 0.00 0.00 0.00 58 1032.7
20260503005505 65 34 6.0 10.0 0.00 0.00 0.00 61 1032.6
20260503004504 64 85 2.0 5.0 0.00 0.00 0.00 61 1032.9
20260503003006 65 85 4.0 8.0 0.00 0.00 0.00 59 1033.2
20260503001507 65 62 5.0 9.0 0.00 0.00 0.00 61 1033.4
20260503001007 65 47 3.0 9.0 0.00 0.00 0.00 59 1033.6
20260503000506 65 54 5.0 7.0 0.00 0.00 0.00 62 1033.5
20260503000006 64 6 2.0 9.0 0.00 0.00 0.00 58 1033.7
20260502235505 65 102 3.0 9.0 0.00 0.00 0.00 61 1033.5
20260502235007 65 18 3.0 8.0 0.00 0.00 0.00 62 1033.8
20260502234505 64 92 3.0 8.0 0.00 0.00 0.00 60 1033.9
20260502233506 64 87 5.0 8.0 0.00 0.00 0.00 61 1034.1
20260502232504 63 54 6.0 8.0 0.00 0.00 0.00 60 1034.1
20260502232006 64 94 4.0 7.0 0.00 0.00 0.00 63 1034.4
20260502225005 63 21 4.0 6.0 0.00 0.00 0.00 68 1034.3
20260502224506 62 8 2.0 6.0 0.00 0.00 0.00 67 1034.2
20260502223005 62 95 3.0 6.0 0.00 0.00 0.00 70 1034.1
20260502222006 61 68 4.0 6.0 0.00 0.00 0.00 71 1034.1
20260502221006 60 115 2.0 5.0 0.00 0.00 0.00 74 1034.2
20260502220504 60 101 2.0 5.0 0.00 0.00 0.00 75 1034.0
20260502220007 60 132 2.0 5.0 0.00 0.00 0.00 75 1034.1
20260502215004 59 95 2.0 5.0 0.00 0.00 0.00 78 1034.2
20260502214006 58 67 2.0 3.0 0.00 0.00 0.00 79 1034.2
20260502212504 57 82 3.0 5.0 0.00 0.00 0.00 80 1034.2
20260502210005 56 80 1.0 2.0 0.00 0.00 0.00 85 1034.1
20260502205506 55 113 2.0 3.0 0.00 0.00 0.00 85 1034.1
20260502205004 54 119 2.0 5.0 0.00 0.00 0.00 85 1034.2
20260502204505 54 136 4.0 6.0 0.00 0.00 0.00 85 1033.9
20260502204005 54 135 2.0 5.0 0.00 0.00 0.00 86 1034.1
20260502203506 53 90 2.0 5.0 0.00 0.00 0.00 86 1034.2
20260502202504 53 127 5.0 7.0 0.00 0.00 0.00 87 1034.1
20260502202006 52 119 3.0 5.0 0.00 0.00 0.00 87 1033.9
20260502201505 52 112 3.0 5.0 0.00 0.00 0.00 87 1033.9
20260502200006 52 132 5.0 8.0 0.00 0.00 0.00 87 1033.8
20260502195505 51 100 5.0 7.0 0.00 0.00 0.00 87 1033.4
20260502195005 51 65 5.0 7.0 0.00 0.00 0.00 87 1033.6
20260502194004 51 107 2.0 5.0 0.00 0.00 0.00 87 1033.6
20260502193521 51 99 2.0 5.0 0.00 0.00 0.00 87 1033.4
20260502193005 51 96 2.0 5.0 0.00 0.00 0.00 87 1033.6
20260502192005 52 80 3.0 5.0 0.00 0.00 0.00 87 1033.5
20260502191005 52 90 3.0 6.0 0.00 0.00 0.00 86 1033.4
20260502190505 52 96 3.0 6.0 0.00 0.00 0.00 86 1033.3
20260502185004 52 46 1.0 3.0 0.00 0.00 0.00 85 1033.3
20260502184007 53 99 2.0 5.0 0.00 0.00 0.00 85 1033.1
20260502183506 53 113 2.0 5.0 0.00 0.00 0.00 85 1033.3
20260502183005 53 94 2.0 5.0 0.00 0.00 0.00 85 1033.2
20260502182504 53 76 3.0 5.0 0.00 0.00 0.00 85 1033.1
20260502181506 53 140 1.0 3.0 0.00 0.00 0.00 85 1033.1
20260502181005 53 86 2.0 5.0 0.00 0.00 0.00 85 1033.2
20260502180504 53 59 2.0 3.0 0.00 0.00 0.00 85 1033.1
20260502163006 51 105 1.0 2.0 0.00 0.00 0.00 88 1032.8
20260502162508 51 183 1.0 6.0 0.00 0.00 0.00 88 1033.1
20260502162007 50 178 2.0 5.0 0.00 0.00 0.00 87 1032.9
20260502161506 50 324 2.0 2.0 0.00 0.00 0.00 87 1032.9
20260502150508 49 25 2.0 3.0 0.00 0.00 0.00 88 1033.1
20260502130506 51 324 1.0 2.0 0.00 0.00 0.00 84 1033.4
20260502123506 51 340 3.0 5.0 0.00 0.00 0.00 83 1033.4
20260502122506 52 333 2.0 2.0 0.00 0.00 0.00 83 1033.5
20260502122006 52 273 1.0 2.0 0.00 0.00 0.00 83 1033.4
20260502121506 52 293 1.0 2.0 0.00 0.00 0.00 83 1033.3
20260502121006 53 313 2.0 2.0 0.00 0.00 0.00 83 1033.2
20260502115505 53 12 1.0 2.0 0.00 0.00 0.00 82 1033.2
20260502114507 53 352 2.0 2.0 0.00 0.00 0.00 82 1033.3
20260502111508 54 47 2.0 2.0 0.00 0.00 0.00 83 1033.1
20260502110006 54 54 2.0 3.0 0.00 0.00 0.00 82 1033.2
20260502105507 54 51 1.0 2.0 0.00 0.00 0.00 82 1033.1
20260502105006 54 52 2.0 2.0 0.00 0.00 0.00 82 1033.1
20260502103506 54 56 1.0 2.0 0.00 0.00 0.00 82 1033.1
20260502102505 54 77 1.0 2.0 0.00 0.00 0.00 81 1033.0
20260502102008 54 80 1.0 2.0 0.00 0.00 0.00 81 1032.9
20260502101505 54 74 1.0 2.0 0.00 0.00 0.00 81 1033.2
20260502100506 54 61 1.0 2.0 0.00 0.00 0.00 81 1033.1
20260502091506 55 60 1.0 3.0 0.00 0.00 0.00 81 1032.6
20260502090505 55 36 0.0 2.0 0.00 0.00 0.00 81 1032.3
20260502071507 58 91 1.0 3.0 0.00 0.00 0.00 78 1032.0
20260502070505 58 102 1.0 3.0 0.00 0.00 0.00 78 1031.9
20260502065006 58 83 1.0 2.0 0.00 0.00 0.00 78 1031.9
20260502063006 59 49 1.0 2.0 0.00 0.00 0.00 77 1031.9
20260502061005 59 110 2.0 3.0 0.00 0.00 0.00 77 1031.5
20260502060506 59 68 1.0 2.0 0.00 0.00 0.00 76 1031.3
20260502055006 60 355 1.0 2.0 0.00 0.00 0.00 76 1031.2
20260502054506 60 11 1.0 2.0 0.00 0.00 0.00 75 1031.3
20260502053005 60 354 1.0 2.0 0.00 0.00 0.00 75 1031.2
20260502051005 61 57 2.0 3.0 0.00 0.00 0.00 74 1031.0
20260502050506 61 102 2.0 3.0 0.00 0.00 0.00 73 1031.3
20260502050006 61 119 1.0 3.0 0.00 0.00 0.00 73 1031.1
20260502045005 61 98 2.0 3.0 0.00 0.00 0.00 74 1031.0
20260502044007 62 66 2.0 5.0 0.00 0.00 0.00 73 1030.9
20260502042506 62 54 2.0 5.0 0.00 0.00 0.00 72 1031.3
20260502041505 63 61 3.0 6.0 0.00 0.00 0.00 71 1031.2
20260502041006 63 92 2.0 5.0 0.00 0.00 0.00 72 1031.3
20260502040005 63 75 2.0 5.0 0.00 0.00 0.00 71 1031.2
20260502035507 63 73 3.0 6.0 0.00 0.00 0.00 71 1031.1
20260502034507 63 42 4.0 6.0 0.00 0.00 0.00 71 1031.3
20260502034005 63 33 1.0 3.0 0.00 0.00 0.00 70 1031.2
20260502033505 64 92 2.0 5.0 0.00 0.00 0.00 70 1031.3
20260502033005 64 66 3.0 7.0 0.00 0.00 0.00 68 1031.3
20260502025505 65 47 3.0 7.0 0.00 0.00 0.00 67 1031.5
20260502025005 65 93 2.0 8.0 0.00 0.00 0.00 67 1031.7
20260502024507 65 125 4.0 7.0 0.00 0.00 0.00 66 1031.5
20260502023007 65 135 4.0 7.0 0.00 0.00 0.00 67 1031.6